Date String (YYYY-MM-DD hh:mm:ss) UTC,Instrument flags,absolute air pressure of the measurement (hPa),sample flow rate (lpm),inlet stack bypass flow (lpm),air temperature of the measurement (°C),ambient temperature measured by the external sensor (°C),aerosol sample conditioner tube jacket temperature (°C),OPC LED temperature (°C),internal box temperature (°C),relative humidity of the measurement (%),span deviation,mass concentration of particles derived from Lorenz-Mie calculation of OPC scattering (μg/m³),mass concentration of particles derived from Lorenz-Mie calculation of OPC scattering (μg/m³),mass concentration of particles derived from Lorenz-Mie calculation of OPC scattering (μg/m³)
DateTimeUTC,F1_M11,P_M11,Q1_M11,Q2_M11,T1_M11,T2_M11,T3_M11,T4_M11,T5_M11,U1_M11,ZSPAN_M11,X0_M11,X2_M11,X1_M11
2024-06-15 04:00:00,SystemResetWarning,0827.9,4.99,000.00,029.7,028.9,000.0,037.9,031.4,025.3,0000.0,0015.93,0006.02,0005.13
2024-06-15 04:01:00,SystemResetWarning,0827.9,5.00,000.00,029.7,029.0,000.0,037.9,031.5,025.0,0000.0,0015.95,0006.01,0005.09
2024-06-15 04:02:00,SystemResetWarning,0827.8,5.00,000.00,029.8,029.1,000.0,038.0,031.5,024.6,0000.0,0015.89,0005.98,0005.04
2024-06-15 04:03:00,SystemResetWarning,0827.8,5.00,000.00,029.8,029.2,000.0,038.0,031.6,024.5,0000.0,0015.72,0005.88,0004.97
2024-06-15 04:04:00,SystemResetWarning,0827.8,5.00,000.00,029.9,029.3,000.0,038.0,031.7,024.1,0000.0,0015.11,0005.80,0004.91
2024-06-15 04:05:00,SystemResetWarning,0827.8,5.00,000.00,029.9,029.4,000.0,038.1,031.7,022.6,0000.0,0013.24,0005.74,0004.85
2024-06-15 04:06:00,SystemResetWarning,0827.8,4.99,000.00,030.0,029.4,000.0,038.1,031.8,022.1,0000.0,0012.32,0005.67,0004.79
2024-06-15 04:07:00,SystemResetWarning,0827.8,5.00,000.00,030.0,029.5,000.0,038.1,031.8,022.6,0000.0,0012.13,0005.57,0004.71
2024-06-15 04:08:00,SystemResetWarning,0827.8,5.01,000.00,030.1,029.6,000.0,038.1,031.9,022.4,0000.0,0011.09,0005.46,0004.62
2024-06-15 04:09:00,SystemResetWarning,0827.9,5.01,000.00,030.1,029.6,000.0,038.2,031.9,022.3,0000.0,0009.90,0005.31,0004.51
2024-06-15 04:10:00,SystemResetWarning,0827.9,5.00,000.00,030.1,029.6,000.0,038.2,031.9,021.8,0000.0,0009.60,0005.18,0004.43
2024-06-15 04:11:00,SystemResetWarning,0827.9,4.99,000.00,030.2,029.7,000.0,038.2,032.0,021.5,0000.0,0009.27,0005.07,0004.36
2024-06-15 04:12:00,SystemResetWarning,0827.9,5.00,000.00,030.2,029.7,000.0,038.3,032.0,021.5,0000.0,0009.37,0004.95,0004.27
2024-06-15 04:13:00,SystemResetWarning,0827.9,5.00,000.00,030.3,029.8,000.0,038.3,032.0,021.3,0000.0,0009.49,0004.81,0004.19
2024-06-15 04:14:00,SystemResetWarning,0827.9,5.00,000.00,030.3,029.8,000.0,038.3,032.1,021.3,0000.0,0009.18,0004.70,0004.11
2024-06-15 04:15:00,SystemResetWarning,0827.9,5.00,000.00,030.3,029.8,000.0,038.4,032.1,021.0,0000.0,0008.72,0004.58,0004.04
2024-06-15 04:16:00,SystemResetWarning,0827.9,5.00,000.00,030.2,028.4,000.0,038.4,031.4,020.1,0000.0,0008.65,0004.49,0003.98
2024-06-15 04:17:00,SystemResetWarning,0827.8,5.02,000.00,029.8,026.4,000.0,038.5,030.5,019.6,0000.0,0008.83,0004.41,0003.93
2024-06-15 04:18:00,SystemResetWarning,0827.8,5.00,000.00,029.5,026.3,000.0,038.4,030.3,019.6,0000.0,0009.76,0004.35,0003.89
2024-06-15 04:19:00,SystemResetWarning,0828.0,4.99,000.00,029.4,026.7,000.0,038.3,030.4,020.1,0000.0,0009.87,0004.27,0003.83
2024-06-15 04:20:00,SystemResetWarning,0828.1,5.00,000.00,029.4,027.1,000.0,038.2,030.7,020.8,0000.0,0009.73,0004.20,0003.78
2024-06-15 04:21:00,SystemResetWarning,0828.3,5.00,000.00,029.5,027.5,000.0,038.1,030.9,022.4,0000.0,0009.67,0004.15,0003.74
2024-06-15 04:22:00,SystemResetWarning,0828.4,5.00,000.00,029.5,027.9,000.0,038.1,031.0,023.3,0000.0,0009.95,0004.13,0003.73
2024-06-15 04:23:00,SystemResetWarning,0828.4,4.99,000.00,029.5,028.2,000.0,038.0,031.1,025.1,0000.0,0009.82,0004.14,0003.76
2024-06-15 04:24:00,SystemResetWarning,0828.4,5.00,000.00,029.6,028.4,000.0,038.0,031.2,027.0,0000.0,0010.62,0004.31,0003.86
2024-06-15 04:25:00,SystemResetWarning,0828.5,5.00,000.00,029.6,028.6,000.0,038.0,031.3,028.2,0000.0,0011.38,0004.52,0004.00
2024-06-15 04:26:00,SystemResetWarning,0828.6,5.00,000.00,029.7,028.8,000.0,038.0,031.4,029.0,0000.0,0013.79,0004.81,0004.19
2024-06-15 04:27:00,SystemResetWarning,0828.6,5.00,000.00,029.7,028.9,000.0,038.0,031.5,029.7,0000.0,0016.52,0005.14,0004.41
2024-06-15 04:28:00,SystemResetWarning,0828.6,5.00,000.00,029.8,029.1,000.0,038.0,031.5,030.3,0000.0,0017.97,0005.55,0004.65
2024-06-15 04:29:00,SystemResetWarning,0828.6,5.00,000.00,029.8,029.2,000.0,038.0,031.6,030.6,0000.0,0018.48,0005.96,0004.93
2024-06-15 04:30:00,SystemResetWarning,0828.6,5.00,000.00,029.9,029.3,000.0,038.1,031.6,031.0,0000.0,0020.33,0006.43,0005.22
2024-06-15 04:31:00,SystemResetWarning,0828.6,5.00,000.00,029.9,029.3,000.0,038.1,031.7,031.3,0000.0,0021.77,0006.91,0005.53
2024-06-15 04:32:00,SystemResetWarning,0828.6,4.99,000.00,030.0,029.4,000.0,038.1,031.8,031.5,0000.0,0022.80,0007.41,0005.85
2024-06-15 04:33:00,SystemResetWarning,0828.7,4.99,000.00,030.0,029.5,000.0,038.2,031.8,031.7,0000.9,0025.40,0007.84,0006.12
2024-06-15 04:34:00,SystemResetWarning,0828.7,5.00,000.00,030.1,029.5,000.0,038.2,031.9,031.8,0001.9,0027.95,0008.33,0006.41
2024-06-15 04:35:00,SystemResetWarning,0828.8,5.00,000.00,030.1,029.6,000.0,038.2,031.9,031.9,0001.9,0028.45,0008.73,0006.67
2024-06-15 04:36:00,SystemResetWarning,0828.8,5.00,000.00,030.1,029.6,000.0,038.3,031.9,032.0,0002.1,0029.08,0008.98,0006.85
2024-06-15 04:37:00,SystemResetWarning,0828.8,5.00,000.00,030.2,029.7,000.0,038.3,031.9,032.1,0002.5,0028.55,0009.27,0007.01
2024-06-15 04:38:00,SystemResetWarning,0828.8,5.00,000.00,030.2,029.7,000.0,038.3,032.0,032.3,0002.3,0027.28,0009.43,0007.13
2024-06-15 04:39:00,SystemResetWarning,0828.8,5.00,000.00,030.3,029.8,000.0,038.4,032.0,032.3,0002.4,0026.55,0009.54,0007.22
2024-06-15 04:40:00,SystemResetWarning,0828.8,5.00,000.00,030.3,029.8,000.0,038.4,032.1,032.4,0002.2,0026.77,0009.65,0007.31
2024-06-15 04:41:00,SystemResetWarning,0828.8,5.00,000.00,030.3,029.9,000.0,038.4,032.1,032.7,0002.3,0025.99,0009.66,0007.39
2024-06-15 04:42:00,SystemResetWarning,0828.8,4.99,000.00,030.4,029.9,000.0,038.5,032.1,032.9,0002.0,0026.51,0009.74,0007.45
2024-06-15 04:43:00,SystemResetWarning,0828.8,4.99,000.00,030.4,029.9,000.0,038.5,032.2,033.2,0002.1,0027.58,0009.80,0007.50
2024-06-15 04:44:00,SystemResetWarning,0828.8,4.99,000.00,030.4,030.0,000.0,038.6,032.2,033.4,0002.1,0026.65,0009.85,0007.51
2024-06-15 04:45:00,SystemResetWarning,0828.8,5.01,000.00,030.5,030.0,000.0,038.6,032.2,033.4,0002.3,0026.70,0009.84,0007.51
2024-06-15 04:46:00,SystemResetWarning,0828.8,5.01,000.00,030.5,030.0,000.0,038.6,032.3,033.3,0002.2,0029.78,0009.81,0007.50
2024-06-15 04:47:00,SystemResetWarning,0828.8,5.00,000.00,030.5,030.1,000.0,038.7,032.3,034.2,0002.1,0030.82,0009.80,0007.50
2024-06-15 04:48:00,SystemResetWarning,0828.8,5.00,000.00,030.6,030.1,000.0,038.7,032.3,034.3,0002.1,0030.66,0009.75,0007.49
2024-06-15 04:49:00,SystemResetWarning,0828.8,5.00,000.00,030.6,030.1,000.0,038.7,032.3,034.1,0002.4,0031.09,0009.73,0007.47
2024-06-15 04:50:00,SystemResetWarning,0828.8,5.00,000.00,030.6,030.1,000.0,038.8,032.4,034.1,0002.0,0032.97,0009.76,0007.46
2024-06-15 04:51:00,SystemResetWarning,0828.8,4.99,000.00,030.7,030.2,000.0,038.8,032.4,033.9,0001.6,0034.45,0009.81,0007.45
2024-06-15 04:52:00,SystemResetWarning,0828.8,5.00,000.00,030.7,030.2,000.0,038.8,032.4,034.0,0001.4,0036.22,0009.88,0007.44
2024-06-15 04:53:00,SystemResetWarning,0828.8,5.00,000.00,030.7,030.2,000.0,038.9,032.5,034.3,0001.3,0035.21,0009.86,0007.42
2024-06-15 04:54:00,SystemResetWarning,0828.9,5.01,000.00,030.8,030.2,000.0,038.9,032.5,034.5,0001.3,0034.73,0009.82,0007.39
2024-06-15 04:55:00,SystemResetWarning,0829.0,5.00,000.00,030.8,030.3,000.0,038.9,032.5,034.8,0001.2,0034.90,0009.79,0007.35
2024-06-15 04:56:00,SystemResetWarning,0828.9,5.00,000.00,030.8,030.3,000.0,039.0,032.5,034.6,0000.6,0033.42,0009.81,0007.32
2024-06-15 04:57:00,SystemResetWarning,0829.0,5.00,000.00,030.8,030.1,000.0,039.0,032.4,034.7,0000.7,0030.67,0009.81,0007.30
2024-06-15 04:58:00,SystemResetWarning,0828.9,5.00,000.00,030.5,027.8,000.0,039.0,031.4,035.4,0000.4,0028.98,0009.84,0007.27
2024-06-15 04:59:00,SystemResetWarning,0829.0,5.02,000.00,030.1,026.6,000.0,039.0,030.7,036.4,0000.0,0030.14,0009.84,0007.23
